Regional Weather Roundup
Issued by NWS

Home | Current Version | Previous Version | Graphics & Text | Print | Product List | Glossary On
Versions: 1 2 3 4 5 6 7 8 9 10 11 12 13 14 15 16 17 18 19 20 21 22 23 24 25 26 27 28 29 30 31 32 33 34 35 36 37 38 39 40 41 42 43 44 45 46 47 48 49 50
000
ASUS45 KBOU 010110
RWRCO

WEATHER ROUNDUP FOR COLORADO
NATIONAL WEATHER SERVICE DENVER/BOULDER CO
700 PM MDT TUE JUN 30 2015

NOTE: "FAIR" INDICATES FEW OR NO CLOUDS BELOW 12000 FEET WITH NO
SIGNIFICANT WEATHER AND/OR OBSTRUCTIONS TO VISIBILITY.

COZ001>005-013-030-031-010200-
...NORTHWEST COLORADO...

CITY           SKY/WX    TMP DP  RH WIND       PRES   REMARKS
CRAIG          CLOUDY    82  43  25 NW16G24   30.17R
HAYDEN         PTSUNNY   81  43  26 NW29G36   30.18R
MEEKER         CLOUDY    84  42  22 N9G18     30.18R
MOUNT WERNER   NOT AVBL
STEAMBOAT SPGS PTSUNNY   78  54  44 SW5       30.20R
WALDEN         CLOUDY    63  50  63 SE9       30.29F
$$

COZ006>008-011-010200-
...WEST CENTRAL VALLEYS...

CITY           SKY/WX    TMP DP  RH WIND       PRES   REMARKS
GRAND JUNCTION PTSUNNY   87  45  23 NW24G31   30.00R
MONTROSE       MOSUNNY   95  37  13 NW6       30.06S
EAGLE          TSTM      75  46  35 NW21G32   30.16R
RIFLE          PTSUNNY   89  43  20 NW17G23   30.06R
DELTA          MOSUNNY   99  37  12 W25G38    29.99S
NUCLA          MOSUNNY   91  41  17 N7        30.10S THUNDER
$$

COZ017>023-064>068-010200-
...SOUTHWEST COLORADO...

CITY           SKY/WX    TMP DP  RH WIND       PRES   REMARKS
DURANGO        PTSUNNY   90  45  21 SW7       30.12F
CORTEZ         SUNNY     91  46  21 SW6       30.06F
PAGOSA SPRINGS PTSUNNY   80  44  28 NE3       30.25F
TELLURIDE      MOSUNNY   79  34  19 CALM      30.39F
WOLF CREEK PAS NOT AVBL
$$

COZ009-010-012-014-032>034-037-058>063-010200-
...CENTRAL COLORADO...

CITY           SKY/WX    TMP DP  RH WIND       PRES   REMARKS
ASPEN          PTSUNNY   80  44  27 SW10      30.25F
BUENA VISTA    PTSUNNY   80  34  18 NW9       30.25F
COPPER MTN     PTSUNNY   64  30  27 W18G24    30.67R THUNDER
BERTHOUD PASS  TSTM      45  34  65 N8G17     30.75R
COTTONWOOD PAS NOT AVBL
GUNNISON       PTSUNNY   84  39  20 NW7       30.24F
KREMMLING      CLOUDY    82  32  16 N5        30.23F
LEADVILLE      PTSUNNY   69  30  23 W8        30.45S
MONARCH PASS   CLOUDY    61  37  41 W13       30.74S
SALIDA         PTSUNNY   81  46  29 W6        30.28F
SUNLIGHT       PTSUNNY   70  37  30 W7        30.57S
WILKERSON PASS PTSUNNY   63  36  36 E7G22     30.62R
$$

COZ069>075-010200-
...SAN LUIS VALLEY/SANGRE DE CRISTO MOUNTAINS...

CITY           SKY/WX    TMP DP  RH WIND       PRES   REMARKS
ALAMOSA        PTSUNNY   82  41  23 S3        30.21F
LA VETA PASS   MOSUNNY   64  36  34 MISG      30.49S
SAGUACHE       CLOUDY    81  43  26 CALM      30.25S
$$

COZ035-036-038>040-010200-
...NORTHERN COLORADO FRONT RANGE...

CITY           SKY/WX    TMP DP  RH WIND       PRES   REMARKS
DENVER INTL AP CLOUDY    83  48  29 W7        30.07R
DMNS CITY PARK   N/A     83  45  26 NW8G15    30.10R
AURORA         PTSUNNY   82  47  29 N6        30.10S
FRONT RANGE AP PTSUNNY   82  50  32 CALM      30.07F
ERIE MUNI ARPT CLOUDY    76  55  47 NW6       30.09R
BOULDER MUN AP TSTM      79  50  36 NW22G43   30.14R
CENTENNIAL     CLOUDY    82  47  29 N6        30.11F
BROOMFIELD     PTSUNNY   81  50  34 W10       30.12R THUNDER
FORT COLLINS   CLOUDY    81  54  39 N13       30.05F
LONGMONT       LGT RAIN  82  50  33 W18G26    30.09R
$$

COZ041-046-047-076>085-087-088-010200-
...PIKES PEAK/PALMER DIVIDE AND SOUTHERN FOOTHILLS...

CITY           SKY/WX    TMP DP  RH WIND       PRES   REMARKS
COLO. SPRINGS  PTSUNNY   82  51  34 SW6       30.15R
A. F. ACADEMY  PTSUNNY   81  49  32 SW3       30.17R
ELLICOTT       PTSUNNY    1  32 100 CALM      30.14R
FALCON         PTSUNNY   80  53  38 W3        30.22R
FORT CARSON    PTSUNNY   77  59  52 NW7       30.10S
LIMON          MOSUNNY   81  57  43 S6        30.07S
MONUMENT HILL  PTSUNNY   75  50  41 NE5       30.23S
TRINIDAD       SUNNY     89  48  24 S7        30.08F
$$

COZ042>045-048>051-090-091-010200-
...NORTHEAST COLORADO...

CITY           SKY/WX    TMP DP  RH WIND       PRES   REMARKS
GREELEY ARPT   CLOUDY    82  52  34 W8        30.03R
AKRON          PTSUNNY   86  56  35 CALM      30.00S
BURLINGTON     SUNNY     92  44  19 S15       29.97S
WRAY           SUNNY     91  55  29 SW5       29.90S
STERLING       PTSUNNY   90  55  31 W5          N/A
HOLYOKE        SUNNY     88  55  33 CALM      29.91R
FORT MORGAN    PTSUNNY   82  50  32 W6        29.99S
$$

COZ086-089-092>099-010200-
...SOUTHEAST COLORADO...

CITY           SKY/WX    TMP DP  RH WIND       PRES   REMARKS
PUEBLO         MOSUNNY   94  44  17 SE9       29.98S
LA JUNTA       SUNNY     94  47  20 E7        29.96S
LAMAR          SUNNY     96  49  20 CALM      29.91F
SPRINGFIELD      N/A     90  44  20 S13       29.99F
$$



USA.gov is the U.S. government's official web portal to all federal, state and local government web resources and services.